FW6909 Weather Reports


time (UTC)temp
F
wind
direction
speed
knots
gust
knots
rain 1hr
in
rain 24hr
in
rain mn
in
humidity
%
barometer
mb
20260506073042 44 88 3.5 7.0 0.00 0.00 0.00 64 1016.7
20260506072534 44 75 2.6 7.0 0.00 0.00 0.00 64 1016.7
20260506072031 44 82 2.6 7.0 0.00 0.00 0.00 65 1016.7
20260506071538 44 65 3.5 7.0 0.00 0.00 0.00 65 1016.7
20260506071033 44 114 3.5 7.0 0.00 0.00 0.00 66 1016.7
20260506070531 44 127 2.6 5.2 0.00 0.00 0.00 67 1016.9
20260506062031 43 68 0.9 4.3 0.00 0.00 0.00 69 1016.7
20260506061545 43 113 0.9 4.3 0.00 0.00 0.00 70 1016.7
20260506061031 43 79 0.9 3.5 0.00 0.00 0.00 70 1016.8
20260506060532 43 80 0.9 3.5 0.00 0.00 0.00 70 1016.8
20260506051031 42 75 0.9 2.6 0.00 0.00 0.00 69 1016.8
20260506050531 42 105 0.9 3.5 0.00 0.00 0.00 69 1016.9
20260506045030 42 76 0.9 2.6 0.00 0.00 0.00 69 1016.8
20260506044543 42 76 0.9 2.6 0.00 0.00 0.00 69 1016.8
20260506044030 42 58 0.9 2.6 0.00 0.00 0.00 69 1017.0
20260506043534 42 72 0.9 1.7 0.00 0.00 0.00 69 1016.8
20260506043043 42 76 0.0 1.7 0.00 0.00 0.00 69 1016.8
20260506042530 42 83 0.0 1.7 0.00 0.00 0.00 68 1017.0
20260506042030 42 85 0.9 2.6 0.00 0.00 0.00 68 1017.0
20260506041537 43 89 0.9 2.6 0.00 0.00 0.00 68 1017.0
20260506041030 43 65 0.9 3.5 0.00 0.00 0.00 68 1016.8
20260506040535 43 84 0.9 3.5 0.00 0.00 0.00 67 1016.8
20260506040045 43 55 1.7 3.5 0.00 0.00 0.00 67 1017.0
20260506035530 43 74 0.0 3.5 0.00 0.00 0.00 67 1016.8
20260506035030 43 72 1.7 4.3 0.00 0.00 0.00 67 1016.9
20260506034558 43 82 1.7 4.3 0.00 0.00 0.00 67 1017.0
20260506034030 43 89 1.7 4.3 0.00 0.00 0.00 67 1016.9
20260506033531 43 71 1.7 4.3 0.00 0.00 0.00 66 1016.9
20260506033055 43 108 1.7 3.5 0.00 0.00 0.00 66 1016.9
20260506032531 43 122 0.9 3.5 0.00 0.00 0.00 66 1017.0
20260506032031 43 82 1.7 3.5 0.00 0.00 0.00 66 1017.0
20260506031533 43 70 0.9 3.5 0.00 0.00 0.00 66 1016.9
20260506031031 43 98 1.7 3.5 0.00 0.00 0.00 66 1016.9
20260506030530 43 92 1.7 3.5 0.00 0.00 0.00 66 1017.0
20260506030044 43 54 0.9 3.5 0.00 0.00 0.00 66 1017.0
20260506025530 43 71 1.7 3.5 0.00 0.00 0.00 66 1017.1
20260506025030 43 94 1.7 3.5 0.00 0.00 0.00 66 1017.1
20260506024555 43 58 0.9 3.5 0.00 0.00 0.00 66 1017.1
20260506024031 43 60 1.7 3.5 0.00 0.00 0.00 66 1017.0
20260506023531 44 56 0.9 2.6 0.00 0.00 0.00 66 1017.0
20260506023040 44 77 0.9 3.5 0.00 0.00 0.00 66 1017.1
20260506022530 44 76 0.9 3.5 0.00 0.00 0.00 66 1017.1
20260506022031 44 77 1.7 4.3 0.00 0.00 0.00 65 1017.1
20260506021538 44 89 0.9 6.1 0.00 0.00 0.00 65 1017.0
20260506021031 44 71 1.7 6.1 0.00 0.00 0.00 65 1017.1
20260506020530 44 94 2.6 6.1 0.00 0.00 0.00 65 1017.0
20260506020035 44 86 1.7 4.3 0.00 0.00 0.00 65 1017.1
20260506015531 44 63 1.7 5.2 0.00 0.00 0.00 64 1017.1
20260506015031 44 77 1.7 6.1 0.00 0.00 0.00 65 1017.0
20260506014536 44 66 2.6 6.1 0.00 0.00 0.00 64 1017.0
20260506014030 44 102 2.6 3.5 0.00 0.00 0.00 64 1017.2
20260506013530 44 59 0.9 4.3 0.00 0.00 0.00 64 1017.3
20260506013059 44 96 1.7 4.3 0.00 0.00 0.00 64 1017.2
20260506012531 44 86 1.7 4.3 0.00 0.00 0.00 64 1017.3
20260506012031 44 77 0.9 4.3 0.00 0.00 0.00 64 1017.4
20260506011542 44 85 1.7 5.2 0.00 0.00 0.00 63 1017.4
20260506011030 44 72 1.7 5.2 0.00 0.00 0.00 63 1017.5
20260506010531 44 72 1.7 4.3 0.00 0.00 0.00 63 1017.5
20260506010037 44 82 1.7 4.3 0.00 0.00 0.00 63 1017.5
20260506005530 44 80 2.6 5.2 0.00 0.00 0.00 63 1017.5
20260506005030 44 68 2.6 5.2 0.00 0.00 0.00 63 1017.6
20260506004536 44 160 1.7 5.2 0.00 0.00 0.00 63 1017.6
20260506004030 45 72 2.6 6.1 0.00 0.00 0.00 63 1017.6
20260506003530 45 78 2.6 6.1 0.00 0.00 0.00 62 1017.6
20260506003042 45 68 3.5 7.0 0.00 0.00 0.00 62 1017.7
20260506002530 45 78 2.6 7.8 0.00 0.00 0.00 62 1017.7
20260506002030 45 95 3.5 7.8 0.00 0.00 0.00 63 1017.7
20260506001545 45 74 5.2 7.8 0.00 0.00 0.00 62 1017.5
20260506001030 45 71 2.6 5.2 0.00 0.00 0.00 63 1017.6
20260506000530 45 59 2.6 5.2 0.00 0.00 0.00 63 1017.6
20260506000037 45 72 1.7 6.1 0.00 0.00 0.00 63 1017.6
20260505235531 45 81 3.5 6.1 0.00 0.00 0.00 63 1017.5
20260505235031 45 70 2.6 5.2 0.00 0.00 0.00 63 1017.5
20260505234537 45 75 2.6 6.1 0.00 0.00 0.00 63 1017.5
20260505234030 45 49 1.7 6.1 0.00 0.00 0.00 63 1017.5
20260505233531 45 69 2.6 5.2 0.00 0.00 0.00 63 1017.6
20260505233043 45 84 1.7 5.2 0.00 0.00 0.00 63 1017.5
20260505232530 45 59 2.6 7.0 0.00 0.00 0.00 63 1017.6
20260505232030 45 108 1.7 7.0 0.00 0.00 0.00 64 1017.7
20260505231543 45 83 3.5 7.0 0.00 0.00 0.00 63 1017.7
20260505231033 45 56 2.6 8.7 0.00 0.00 0.00 63 1017.7
20260505230530 45 68 3.5 8.7 0.00 0.00 0.00 63 1017.7
20260505230051 45 68 4.3 8.7 0.00 0.00 0.00 63 1017.8
20260505225530 45 117 3.5 7.8 0.00 0.00 0.00 63 1017.9
20260505225030 45 63 3.5 7.0 0.00 0.00 0.00 63 1017.9
20260505224536 45 70 2.6 7.0 0.00 0.00 0.00 63 1017.8
20260505224030 45 78 2.6 7.8 0.00 0.00 0.00 63 1017.9
20260505223530 45 69 3.5 7.8 0.00 0.00 0.00 64 1017.8
20260505223054 45 96 1.7 4.3 0.00 0.00 0.00 64 1017.9
20260505222534 46 65 1.7 4.3 0.00 0.00 0.00 64 1018.0
20260505222032 46 75 1.7 7.8 0.00 0.00 0.00 63 1017.9
20260505221543 46 58 1.7 7.8 0.00 0.00 0.00 63 1017.9
20260505221031 46 108 2.6 7.0 0.00 0.00 0.00 63 1017.7
20260505220530 46 60 2.6 6.1 0.00 0.00 0.00 63 1017.8
20260505220044 46 74 3.5 7.8 0.00 0.00 0.00 63 1017.9
20260505215530 46 63 3.5 7.8 0.00 0.00 0.00 63 1018.0
20260505215030 46 94 3.5 7.8 0.00 0.00 0.00 63 1018.1
20260505214540 46 65 2.6 6.1 0.00 0.00 0.00 62 1017.8
20260505214030 46 65 2.6 6.1 0.00 0.00 0.00 63 1017.9
20260505213530 46 92 2.6 7.0 0.00 0.00 0.00 63 1017.7
20260505213050 46 106 2.6 7.0 0.00 0.00 0.00 62 1017.8
20260505212533 46 78 2.6 7.0 0.00 0.00 0.00 62 1017.7
20260505212033 46 80 2.6 11.3 0.00 0.00 0.00 62 1017.7
20260505211535 46 75 3.5 11.3 0.00 0.00 0.00 62 1017.6
20260505211031 46 76 3.5 7.8 0.00 0.00 0.00 62 1017.6
20260505210536 46 60 2.6 9.6 0.00 0.00 0.00 61 1017.6
20260505210042 46 93 3.5 9.6 0.00 0.00 0.00 61 1017.6
20260505205531 46 84 4.3 9.6 0.00 0.00 0.00 61 1017.5
20260505205032 46 61 4.3 9.6 0.00 0.00 0.00 61 1017.5
20260505204546 46 72 4.3 9.6 0.00 0.00 0.00 61 1017.4
20260505204033 46 64 3.5 9.6 0.00 0.00 0.00 61 1017.4
20260505203531 46 119 5.2 8.7 0.00 0.00 0.00 61 1017.2
20260505203046 46 72 4.3 7.8 0.00 0.00 0.00 62 1017.3
20260505202531 46 65 4.3 9.6 0.00 0.00 0.00 62 1017.3
20260505202031 47 77 3.5 11.3 0.00 0.00 0.00 62 1017.2
20260505201546 47 85 5.2 11.3 0.00 0.00 0.00 62 1017.2
20260505201032 47 80 5.2 11.3 0.00 0.00 0.00 62 1017.2
20260505200532 47 65 7.0 11.3 0.00 0.00 0.00 63 1017.2
20260505200045 47 112 5.2 10.4 0.00 0.00 0.00 63 1017.1
20260505195531 47 75 4.3 9.6 0.00 0.00 0.00 63 1017.1
20260505195033 47 120 5.2 9.6 0.00 0.00 0.00 64 1017.0
20260505194550 47 67 3.5 11.3 0.00 0.00 0.00 64 1017.1
20260505194034 47 60 4.3 11.3 0.00 0.00 0.00 63 1017.0
20260505193533 47 63 7.0 11.3 0.00 0.00 0.00 63 1017.0
20260505193042 48 81 4.3 9.6 0.00 0.00 0.00 63 1016.9
20260505192534 48 85 4.3 9.6 0.00 0.00 0.00 63 1016.9
20260505192032 48 81 4.3 8.7 0.00 0.00 0.00 62 1016.9
20260505191541 48 73 5.2 11.3 0.00 0.00 0.00 62 1016.8
20260505191033 48 110 4.3 11.3 0.00 0.00 0.00 62 1016.7
20260505190535 48 72 4.3 7.0 0.00 0.00 0.00 62 1016.8
20260505190048 49 92 2.6 8.7 0.00 0.00 0.00 63 1016.7
20260505185533 49 60 2.6 8.7 0.00 0.00 0.00 63 1016.7
20260505185032 49 70 5.2 7.8 0.00 0.00 0.00 62 1016.7
20260505184550 49 94 4.3 7.8 0.00 0.00 0.00 62 1016.6
20260505184034 49 80 4.3 10.4 0.00 0.00 0.00 62 1016.5
20260505183532 49 56 6.1 10.4 0.00 0.00 0.00 61 1016.5
20260505183049 49 72 5.2 13.0 0.00 0.00 0.00 61 1016.6
20260505182531 50 70 7.0 13.0 0.00 0.00 0.00 61 1016.6
20260505182034 50 97 5.2 12.2 0.00 0.00 0.00 62 1016.5
20260505181541 50 81 7.0 13.9 0.00 0.00 0.00 61 1016.5
20260505181033 50 75 5.2 13.9 0.00 0.00 0.00 61 1016.4
20260505180533 50 60 6.1 13.9 0.00 0.00 0.00 61 1016.5
20260505180039 50 89 5.2 12.2 0.00 0.00 0.00 61 1016.4
20260505175532 50 96 5.2 12.2 0.00 0.00 0.00 62 1016.4
20260505175032 49 50 6.1 12.2 0.00 0.00 0.00 62 1016.3
20260505174537 50 92 6.1 12.2 0.00 0.00 0.00 62 1016.4
20260505174032 50 46 7.0 14.8 0.00 0.00 0.00 61 1016.4
20260505173534 50 131 5.2 14.8 0.00 0.00 0.00 62 1016.5
20260505173043 51 28 4.3 10.4 0.00 0.00 0.00 62 1016.3
20260505172531 51 68 5.2 9.6 0.00 0.00 0.00 62 1016.4
20260505172032 51 84 4.3 9.6 0.00 0.00 0.00 62 1016.4
20260505171543 51 74 5.2 14.8 0.00 0.00 0.00 62 1016.4
20260505171034 51 68 7.8 14.8 0.00 0.00 0.00 63 1016.3
20260505170532 51 85 6.1 13.0 0.00 0.00 0.00 63 1016.3
20260505170042 51 79 5.2 11.3 0.00 0.00 0.00 63 1016.3
20260505165532 51 70 5.2 11.3 0.00 0.00 0.00 62 1016.2
20260505165032 52 65 6.1 11.3 0.00 0.00 0.00 61 1016.2
20260505164556 52 88 5.2 11.3 0.00 0.00 0.00 60 1016.2
20260505164032 52 94 6.1 11.3 0.00 0.00 0.00 60 1016.1
20260505163532 52 90 7.0 11.3 0.00 0.00 0.00 60 1016.1
20260505163038 52 46 6.1 10.4 0.00 0.00 0.00 61 1016.0
20260505162531 51 123 4.3 10.4 0.00 0.00 0.00 63 1016.1
20260505162032 51 94 5.2 11.3 0.00 0.00 0.00 62 1016.1
20260505161537 51 64 5.2 11.3 0.00 0.00 0.00 62 1016.0
20260505161033 52 84 3.5 10.4 0.00 0.00 0.00 63 1016.2
20260505160533 51 79 6.1 11.3 0.00 0.00 0.00 62 1016.2
20260505153108 52 83 6.1 13.0 0.00 0.00 0.00 61 1015.9
20260505152531 52 77 5.2 9.6 0.00 0.00 0.00 61 1016.0
20260505152032 52 81 3.5 11.3 0.00 0.00 0.00 60 1016.1
20260505151545 52 75 7.0 11.3 0.00 0.00 0.00 60 1016.1
20260505151032 52 122 6.1 12.2 0.00 0.00 0.00 60 1016.0
20260505150532 52 66 7.0 12.2 0.00 0.00 0.00 60 1016.0
20260505140536 53 74 6.1 13.0 0.00 0.00 0.00 60 1015.7
20260505125031 55 82 1.7 6.1 0.00 0.00 0.00 44 1015.3
20260505124540 55 146 0.9 4.3 0.00 0.00 0.00 45 1015.3
20260505124031 55 264 0.9 9.6 0.00 0.00 0.00 45 1015.3
20260505123535 55 96 4.3 9.6 0.00 0.00 0.00 45 1015.5
20260505123045 55 75 2.6 7.8 0.00 0.00 0.00 47 1015.3
20260505122531 55 115 4.3 7.8 0.00 0.00 0.00 47 1015.3
20260505122034 55 105 3.5 7.8 0.00 0.00 0.00 45 1015.5
20260505121537 55 296 0.0 7.8 0.00 0.00 0.00 46 1015.4
20260505121032 55 336 1.7 10.4 0.00 0.00 0.00 46 1015.6
20260505120531 55 40 6.1 10.4 0.00 0.00 0.00 46 1015.7
20260505120041 55 91 4.3 8.7 0.00 0.00 0.00 47 1015.6
20260505115531 55 108 3.5 8.7 0.00 0.00 0.00 48 1015.5
20260505115035 55 100 4.3 7.8 0.00 0.00 0.00 49 1015.6
20260505114545 55 96 4.3 7.0 0.00 0.00 0.00 50 1015.5
20260505114030 54 79 4.3 7.0 0.00 0.00 0.00 50 1015.6
20260505113531 54 108 2.6 7.0 0.00 0.00 0.00 48 1015.6
20260505113041 54 93 2.6 6.1 0.00 0.00 0.00 48 1015.5
20260505112531 54 69 1.7 4.3 0.00 0.00 0.00 50 1015.7
20260505112031 54 340 0.9 4.3 0.00 0.00 0.00 50 1015.6
20260505111553 54 67 0.9 5.2 0.00 0.00 0.00 51 1015.6
20260505111032 53 19 0.0 5.2 0.00 0.00 0.00 51 1015.7
20260505110532 52 75 1.7 5.2 0.00 0.00 0.00 51 1015.7
20260505102031 51 353 0.9 4.3 0.00 0.00 0.00 59 1015.8
20260505101538 51 294 0.9 4.3 0.00 0.00 0.00 59 1015.9
20260505101032 51 221 1.7 4.3 0.00 0.00 0.00 60 1015.9
20260505100535 51 351 0.0 5.2 0.00 0.00 0.00 61 1015.8
20260505100042 51 356 1.7 5.2 0.00 0.00 0.00 60 1015.7
20260505095533 51 37 0.9 4.3 0.00 0.00 0.00 61 1015.7
20260505095031 51 354 1.7 3.5 0.00 0.00 0.00 62 1015.7
20260505094537 51 36 0.9 3.5 0.00 0.00 0.00 62 1015.7
20260505094031 51 246 0.9 6.1 0.00 0.00 0.00 64 1015.6
20260505093531 51 302 2.6 6.1 0.00 0.00 0.00 61 1015.6
20260505093037 51 347 0.9 5.2 0.00 0.00 0.00 62 1015.6
20260505092532 51 324 1.7 7.0 0.00 0.00 0.00 62 1015.6
20260505092032 51 274 0.9 7.0 0.00 0.00 0.00 61 1015.5
20260505091550 51 340 2.6 7.0 0.00 0.00 0.00 62 1015.6
20260505091032 51 71 1.7 5.2 0.00 0.00 0.00 63 1015.5
20260505090531 51 293 1.7 5.2 0.00 0.00 0.00 64 1015.5
20260505090051 51 351 1.7 5.2 0.00 0.00 0.00 65 1015.5
20260505085534 51 11 1.7 4.3 0.00 0.00 0.00 66 1015.5
20260505085031 51 328 0.9 4.3 0.00 0.00 0.00 68 1015.5
20260505084538 51 272 1.7 3.5 0.00 0.00 0.00 68 1015.3
20260505084030 50 260 0.9 5.2 0.00 0.00 0.00 69 1015.3
20260505083531 50 323 1.7 5.2 0.00 0.00 0.00 69 1015.3
20260505083048 50 347 2.6 5.2 0.00 0.00 0.00 69 1015.5
20260505082530 50 342 1.7 5.2 0.00 0.00 0.00 70 1015.3
20260505082032 50 299 2.6 5.2 0.00 0.00 0.00 70 1015.4
20260505081557 50 332 0.9 6.1 0.00 0.00 0.00 72 1015.4
20260505081032 49 339 1.7 6.1 0.00 0.00 0.00 73 1015.3
20260505080534 49 283 0.9 6.1 0.00 0.00 0.00 73 1015.3
20260505080046 49 248 2.6 6.1 0.00 0.00 0.00 73 1015.3
20260505075531 49 331 2.6 5.2 0.00 0.00 0.00 74 1015.3
20260505075031 49 293 1.7 4.3 0.00 0.00 0.00 75 1015.3
20260505074602 48 276 1.7 4.3 0.00 0.00 0.00 76 1015.0
20260505074031 48 304 1.7 4.3 0.00 0.00 0.00 76 1015.0
20260505073531 48 293 1.7 5.2 0.00 0.00 0.00 77 1015.0